Trinidad, CO

2:15 PM MDT on June 27, 2017 (GMT -0600)
Stokes

Weather History for KTAD - April, 2013

Change the Weather History Date:

Sunday, April 7, 2013

  Actual Average Record
Temperature  
Mean Temperature 53 °F 47 °F  
Max Temperature 73 °F 63 °F 82 °F (1978)
Min Temperature 33 °F 32 °F 8 °F (1957)
Degree Days  
Heating Degree Days 12 18  
Month to date heating degree days 107 130  
Since 1 July heating degree days 4771 4959  
Cooling Degree Days 0 0  
Month to date cooling degree days 0 0  
Year to date cooling degree days 0 0  
Growing Degree Days 3 (Base 50)    
Moisture  
Dew Point 20 °F    
Average Humidity 37    
Maximum Humidity 64    
Minimum Humidity 10    
Precipitation  
Precipitation 0.00 in 0.03 in 0.34 in (1957)
Month to date precipitation 0.00 0.21  
Year to date precipitation 0.54 1.99  
Sea Level Pressure  
Sea Level Pressure 29.64 in    
Wind  
Wind Speed 7 mph (WNW)    
Max Wind Speed 17 mph    
Max Gust Speed 23 mph    
Visibility 10 miles    
Events      
T = Trace of Precipitation, MM = Missing Value Source: NWS Daily Summary

Daily Weather History Graph

Daily Weather History Graph

Search for Another Location

Airport or City:

Trip Planner

Search our weather history database for the weather conditions in past years. The results will help you decide how hot, cold, wet, or windy it might be!

Date:

Astronomy

Apr. 07, 2013 Rise Set
Actual Time 6:33 AM MDT 7:25 PM MDT
Civil Twilight 6:07 AM MDT 7:52 PM MDT
Nautical Twilight 5:35 AM MDT 8:23 PM MDT
Astronomical Twilight 5:03 AM MDT 8:56 PM MDT
Moon 4:49 AM MDT (4/7) 5:02 PM MDT (4/7)
Length of Visible Light 13h 44m
Length of Day
12h 51m
Waning Crescent, 8% of the Moon is Illuminated
Apr 7
Waning Crescent
Apr 10
New
Apr 18
First Quarter
Apr 25
Full
May 2
Last Quarter

Hourly Weather History & Observations

Time (MDT) Temp. Windchill Dew Point Humidity Pressure Visibility Wind Dir Wind Speed Gust Speed Precip Events Conditions
12:54 AM 53.1 °F - 28.9 °F 40% 29.73 in 10.0 mi Calm Calm - N/A   Clear
1:54 AM 45.0 °F 40.6 °F 26.1 °F 48% 29.70 in 10.0 mi South 8.1 mph - N/A   Clear
2:54 AM 39.9 °F 33.9 °F 25.0 °F 55% 29.70 in 10.0 mi NW 9.2 mph - N/A   Clear
3:54 AM 39.0 °F 33.4 °F 25.0 °F 57% 29.69 in 10.0 mi WNW 8.1 mph - N/A   Clear
4:54 AM 37.0 °F 30.4 °F 24.1 °F 59% 29.72 in 10.0 mi West 9.2 mph - N/A   Clear
5:54 AM 34.0 °F 28.0 °F 23.0 °F 64% 29.75 in 10.0 mi North 6.9 mph - N/A   Clear
6:54 AM 37.9 °F - 23.0 °F 55% 29.73 in 10.0 mi Calm Calm - N/A   Clear
7:54 AM 46.0 °F - 26.1 °F 46% 29.72 in 10.0 mi Calm Calm - N/A   Clear
8:54 AM 57.0 °F - 25.0 °F 29% 29.69 in 10.0 mi NNE 3.5 mph - N/A   Clear
9:54 AM 59.0 °F - 24.1 °F 26% 29.68 in 10.0 mi WNW 4.6 mph - N/A   Partly Cloudy
10:54 AM 64.9 °F - 21.9 °F 19% 29.65 in 10.0 mi NE 8.1 mph - N/A   Scattered Clouds
11:54 AM 66.0 °F - 21.0 °F 18% 29.63 in 10.0 mi NW 9.2 mph - N/A   Scattered Clouds
12:54 PM 69.1 °F - 21.0 °F 16% 29.60 in 10.0 mi WSW 6.9 mph 17.3 mph N/A   Partly Cloudy
1:54 PM 66.9 °F - 19.9 °F 17% 29.60 in 10.0 mi North 5.8 mph - N/A   Scattered Clouds
2:54 PM 71.1 °F - 17.1 °F 13% 29.57 in 10.0 mi North 9.2 mph - N/A   Scattered Clouds
3:54 PM 72.0 °F - 15.1 °F 11% 29.55 in 10.0 mi NW 6.9 mph - N/A   Clear
4:54 PM 71.1 °F - 12.9 °F 11% 29.55 in 10.0 mi West 13.8 mph 19.6 mph N/A   Clear
5:54 PM 72.0 °F - 14.0 °F 11% 29.56 in 10.0 mi North 8.1 mph - N/A   Clear
6:54 PM 68.0 °F - 16.0 °F 14% 29.58 in 10.0 mi Variable 4.6 mph - N/A   Clear
7:54 PM 64.0 °F - 16.0 °F 16% 29.58 in 10.0 mi Calm Calm - N/A   Partly Cloudy
8:54 PM 57.0 °F - 14.0 °F 18% 29.59 in 10.0 mi West 9.2 mph - N/A   Mostly Cloudy
9:54 PM 54.0 °F - 14.0 °F 21% 29.62 in 10.0 mi WSW 11.5 mph - N/A   Clear
10:54 PM 57.0 °F - 14.0 °F 18% 29.57 in 10.0 mi WNW 3.5 mph - N/A   Clear
11:54 PM 51.1 °F - 14.0 °F 23% 29.57 in 10.0 mi SW 11.5 mph - N/A   Clear